Date String (YYYY-MM-DD hh:mm:ss) UTC,Instrument flags,Ambient pressure (hPa),Sample flow (lpm),Bypass flow (lpm),Sample temperature (°C),Ambient temperature (°C),ASC tube jacket temperature (°C),LED temperature (°C),Box temperature (°C),Sample RH (%),Span deviation,Mass concentration (μg/m³),Mass concentration (μg/m³),Mass concentration (μg/m³)
DateTimeUTC,F1_M11,P_M11,Q1_M11,Q2_M11,T1_M11,T2_M11,T3_M11,T4_M11,T5_M11,U1_M11,ZSPAN_M11,X0_M11,X2_M11,X1_M11
2022-11-25 12:00:00,,0834.4,5.01,0.00,22.2,21.7,00.0,31.0,24.1,09.0,0000.0,0000.75,0000.56,0000.51
2022-11-25 12:01:00,,0834.4,5.00,0.00,22.2,21.4,00.0,31.0,24.1,09.0,0000.0,0001.47,0000.56,0000.49
2022-11-25 12:02:00,,0834.4,5.00,0.00,22.2,21.2,00.0,31.0,24.1,09.0,0000.0,0001.83,0000.57,0000.48
2022-11-25 12:03:00,,0834.4,4.99,0.00,22.1,21.0,00.0,31.0,24.0,09.0,0000.0,0001.85,0000.57,0000.47
2022-11-25 12:04:00,,0834.4,4.99,0.00,22.1,20.9,00.0,31.0,24.0,09.0,0000.0,0001.84,0000.56,0000.46
2022-11-25 12:05:00,,0834.4,5.01,0.00,22.1,20.8,00.0,31.0,24.0,08.9,0000.0,0001.85,0000.56,0000.47
2022-11-25 12:06:00,,0834.4,5.01,0.00,22.1,20.8,00.0,31.0,23.9,08.8,0000.0,0001.85,0000.56,0000.46
2022-11-25 12:07:00,,0834.4,4.99,0.00,22.1,20.8,00.0,31.0,23.9,08.9,0000.0,0001.83,0000.55,0000.45
2022-11-25 12:08:00,,0834.4,5.00,0.00,22.1,20.7,00.0,31.0,23.9,08.9,0000.0,0001.81,0000.54,0000.45
2022-11-25 12:09:00,,0834.4,4.99,0.00,22.0,20.7,00.0,31.0,23.9,08.8,0000.0,0001.80,0000.53,0000.44
2022-11-25 12:10:00,,0834.4,4.99,0.00,22.0,20.6,00.0,31.0,23.9,08.8,0000.0,0001.80,0000.52,0000.43
2022-11-25 12:11:00,,0834.4,5.00,0.00,22.0,20.6,00.0,31.0,23.8,09.0,0000.0,0001.82,0000.52,0000.42
2022-11-25 12:12:00,,0834.5,5.01,0.00,22.0,20.6,00.0,31.0,23.8,09.0,0000.0,0000.96,0000.48,0000.40
2022-11-25 12:13:00,,0834.4,5.01,0.00,22.0,20.6,00.0,31.0,23.8,08.8,0000.0,0000.68,0000.46,0000.40
2022-11-25 12:14:00,,0834.4,4.99,0.00,22.0,20.5,00.0,31.0,23.8,08.8,0000.0,0000.64,0000.44,0000.39
2022-11-25 12:15:00,,0834.4,4.99,0.00,22.0,20.5,00.0,31.0,23.8,08.8,0000.0,0000.67,0000.46,0000.39
2022-11-25 12:16:00,,0834.5,4.99,0.00,22.0,20.5,00.0,31.0,23.8,08.8,0000.0,0000.67,0000.46,0000.39
2022-11-25 12:17:00,,0834.4,5.00,0.00,22.0,20.5,00.0,31.0,23.8,08.7,0000.0,0000.70,0000.47,0000.40
2022-11-25 12:18:00,,0834.5,5.02,0.00,22.0,21.2,00.0,30.9,23.9,08.7,0000.0,0000.74,0000.50,0000.41
2022-11-25 12:19:00,,0834.5,5.00,0.00,22.1,22.2,00.0,30.9,24.1,08.7,0000.0,0000.77,0000.52,0000.42
2022-11-25 12:20:00,,0834.5,4.99,0.00,22.2,22.3,00.0,30.9,24.2,08.6,0000.0,0000.78,0000.53,0000.43
2022-11-25 12:21:00,,0834.5,4.99,0.00,22.2,21.9,00.0,31.0,24.2,08.6,0000.0,0000.76,0000.53,0000.44
2022-11-25 12:22:00,,0834.5,5.00,0.00,22.2,21.6,00.0,31.0,24.1,08.6,0000.0,0000.70,0000.51,0000.44
2022-11-25 12:23:00,,0834.5,5.00,0.00,22.2,21.4,00.0,31.0,24.1,08.6,0000.0,0000.75,0000.53,0000.45
2022-11-25 12:24:00,,0834.5,5.00,0.00,22.2,21.2,00.0,31.1,24.1,08.6,0000.0,0000.73,0000.53,0000.46
2022-11-25 12:25:00,,0834.4,5.00,0.00,22.2,21.1,00.0,31.1,24.0,08.6,0000.0,0000.74,0000.54,0000.46
2022-11-25 12:26:00,,0834.4,5.00,0.00,22.2,20.9,00.0,31.1,24.0,08.7,0000.0,0000.72,0000.52,0000.45
2022-11-25 12:27:00,,0834.5,5.01,0.00,22.1,20.9,00.0,31.1,24.0,08.8,0000.0,0000.71,0000.52,0000.45
2022-11-25 12:28:00,,0834.4,5.00,0.00,22.1,20.8,00.0,31.1,24.0,08.9,0000.0,0000.72,0000.52,0000.44
2022-11-25 12:29:00,,0834.4,5.01,0.00,22.1,20.7,00.0,31.1,23.9,08.9,0000.0,0000.74,0000.51,0000.44
2022-11-25 12:30:00,,0834.4,5.00,0.00,22.1,20.7,00.0,31.1,23.9,08.9,0000.0,0000.71,0000.49,0000.42
2022-11-25 12:31:00,,0834.4,5.00,0.00,22.1,20.7,00.0,31.1,23.9,09.0,0000.0,0000.70,0000.48,0000.41
2022-11-25 12:32:00,,0834.4,5.00,0.00,22.1,20.6,00.0,31.0,23.9,08.9,0000.0,0000.69,0000.48,0000.41
2022-11-25 12:33:00,,0834.4,5.00,0.00,22.0,20.6,00.0,31.0,23.9,09.2,0000.0,0000.74,0000.50,0000.40
2022-11-25 12:34:00,,0834.4,4.99,0.00,22.0,20.5,00.0,31.0,23.8,09.0,0000.0,0000.71,0000.48,0000.39
2022-11-25 12:35:00,,0834.4,4.99,0.00,22.0,20.5,00.0,31.0,23.8,09.1,0000.0,0000.69,0000.47,0000.38
2022-11-25 12:36:00,,0834.4,4.99,0.00,22.0,20.5,00.0,31.0,23.8,09.3,0000.0,0000.66,0000.45,0000.37
2022-11-25 12:37:00,,0834.4,5.00,0.00,22.0,20.5,00.0,31.0,23.8,09.4,0000.0,0000.64,0000.44,0000.36
2022-11-25 12:38:00,,0834.3,5.01,0.00,22.0,20.5,00.0,31.0,23.8,09.4,0000.0,0000.61,0000.42,0000.35
2022-11-25 12:39:00,,0834.4,5.01,0.00,22.0,21.4,00.0,30.9,23.9,09.0,0000.0,0000.55,0000.40,0000.34
2022-11-25 12:40:00,,0834.4,5.00,0.00,22.1,22.2,00.0,30.9,24.2,08.8,0000.0,0000.58,0000.42,0000.34
2022-11-25 12:41:00,,0834.4,5.00,0.00,22.2,22.1,00.0,31.0,24.2,08.7,0000.0,0000.65,0000.45,0000.35
2022-11-25 12:42:00,,0834.4,4.98,0.00,22.2,21.7,00.0,31.0,24.2,08.7,0000.0,0000.64,0000.45,0000.35
2022-11-25 12:43:00,,0834.3,5.00,0.00,22.2,21.5,00.0,31.0,24.1,08.5,0000.0,0000.67,0000.45,0000.34
2022-11-25 12:44:00,,0834.3,5.01,0.00,22.2,21.3,00.0,31.0,24.1,08.7,0000.0,0000.64,0000.43,0000.34
2022-11-25 12:45:00,,0834.3,5.00,0.00,22.2,21.1,00.0,31.1,24.0,08.7,0000.0,0000.62,0000.42,0000.34
2022-11-25 12:46:00,,0834.3,5.00,0.00,22.2,21.0,00.0,31.1,24.0,09.0,0000.0,0000.60,0000.42,0000.33
2022-11-25 12:47:00,,0834.3,4.99,0.00,22.1,20.9,00.0,31.1,24.0,09.1,0000.0,0000.60,0000.41,0000.33
2022-11-25 12:48:00,,0834.3,5.00,0.00,22.1,20.8,00.0,31.1,24.0,09.1,0000.0,0000.60,0000.41,0000.33
2022-11-25 12:49:00,,0834.3,5.00,0.00,22.1,20.7,00.0,31.1,23.9,09.2,0000.0,0000.60,0000.41,0000.33
2022-11-25 12:50:00,,0834.3,5.01,0.00,22.1,20.7,00.0,31.1,23.9,09.2,0000.0,0000.59,0000.40,0000.32
2022-11-25 12:51:00,,0834.3,5.00,0.00,22.1,20.6,00.0,31.0,23.9,09.4,0000.0,0000.51,0000.35,0000.30
2022-11-25 12:52:00,,0834.3,5.00,0.00,22.1,20.6,00.0,31.0,23.9,09.3,0000.0,0000.45,0000.32,0000.29
2022-11-25 12:53:00,,0834.3,5.00,0.00,22.0,20.5,00.0,31.0,23.9,09.3,0000.0,0000.46,0000.32,0000.28
2022-11-25 12:54:00,,0834.3,5.00,0.00,22.0,20.5,00.0,31.0,23.8,09.1,0000.0,0000.42,0000.31,0000.27
2022-11-25 12:55:00,,0834.3,4.99,0.00,22.0,20.5,00.0,31.0,23.8,08.8,0000.0,0000.38,0000.29,0000.27
2022-11-25 12:56:00,,0834.3,4.99,0.00,22.0,20.4,00.0,31.0,23.8,08.6,0000.0,0000.38,0000.29,0000.27
2022-11-25 12:57:00,,0834.3,5.01,0.00,22.0,20.4,00.0,31.0,23.8,08.5,0000.0,0000.38,0000.29,0000.26
2022-11-25 12:58:00,,0834.3,5.01,0.00,22.0,20.7,00.0,31.0,23.8,08.5,0000.0,0000.37,0000.28,0000.26
2022-11-25 12:59:00,,0834.3,5.01,0.00,22.0,21.6,00.0,30.9,24.0,08.4,0000.0,0000.38,0000.29,0000.26
